Location: Baia Mare
(47.6567°N, 23.5850°E)
Time: 23:21:09
(UTC+03:00)

ISS - Pass Details

Date: 08 September 2019
Orbit: 411 x 421 km, 51.6° (Epoch: 19 September)

Event Time Altitude Azimuth Distance (km) Brightness Sun altitude
Exits shadow 05:42:40 11° 296° (WNW) 1,439 -1.4 -12.1°
Maximum altitude 05:45:46 45° 10° (N) 581 -2.8 -11.7°
Drops below altitude 10° 05:49:01 10° 85° (E) 1,495 0.4 -11.2°
Sets 05:51:10 0° 91° (E) 2,359 1.5 -10.8°
